Vertical_Velocity
-1 -2 -0 -4 -4 -6 -2 -3 -0 -5 -3 1 -1 -2 2 -1 5 1 -4 4 4 2 1 -0 3 3 4 1 5 4 -1 -0 2 3 3 -0 2 2 2 -3 -2 1 0
0 -3 -4 -1 -1 -1 -3 -4 -12 -2 2 -0 0 0 4 5 6 9 5 3 4 4 2 3 6 1 3 5 7 4 6 3 -0 1 -5 4 1 3 -3 -0 1 3 -3
-1 -3 -3 -1 -5 -3 -3 -7 -5 -7 -8 -9 -4 -3 5 9 6 7 3 1 1 2 1 4 6 -3 0 4 4 3 2 3 -2 3 -5 -2 2 -4 1 -1 1 3 2
-6 -3 -3 -3 -3 -6 -5 -2 -2 -2 -4 -0 -1 -1 1 4 7 4 3 -1 2 2 2 -1 2 8 1 2 2 3 4 -1 2 -3 -0 -7 -0 -2 6 -0 0 -4 -1
-6 -3 -3 -7 -6 -6 1 -0 -5 -4 1 -2 -3 -5 -2 4 4 7 6 1 1 3 1 5 -1 0 4 10 7 -4 0 -2 4 -4 -4 -4 -4 -2 -10 7 10 -2 1
-4 -4 -4 -5 -4 -3 -2 -5 -4 -4 -5 -3 -4 -6 -2 2 6 -2 5 -1 1 3 1 2 -2 2 2 12 2 1 5 8 3 1 -3 -1 -1 -0 -5 -9 6 -5 11
-4 -4 -4 -1 -3 -3 -1 -4 -2 -6 -7 -5 -3 -4 -2 -1 -2 4 -2 -2 4 1 1 -3 -0 -1 -2 -4 21 25 23 0 -14 -5 2 1 -5 -3 -1 -5 -1 -4 7
-3 -0 1 -1 -1 -2 -1 -3 -3 -5 -7 -6 -3 -4 -2 -3 -3 -1 -0 -0 1 -3 -2 -3 -3 -4 5 -3 8 20 13 -12 13 2 -3 -0 0 1 -1 -1 -7 -1 -3
2 1 0 0 -2 -1 -0 -1 -3 -4 -4 -6 -5 -6 -6 -4 -4 -4 -3 -5 -0 -0 -4 -2 5 12 -2 -1 -5 -5 -2 -3 -7 -4 2 3 2 -1 -0 -3 -2 -5 -4
-1 1 1 -1 -0 1 1 -2 -1 -3 -3 -2 -5 -6 -7 -6 -5 -4 -5 -5 -7 -3 -3 -7 -2 -10 2 3 -9 2 6 5 6 2 4 2 -2 -2 0 -0 1 -2 -6
1 -2 -1 -0 -2 0 1 -1 -3 -3 -3 -5 -2 -4 -5 -10 -6 -4 -8 -11 -5 -1 9 11 6 -1 5 6 -3 2 4 1 3 -0 -4 -4 1 -1 -0 -3 -1 1 -0
-1 -2 -1 -1 -2 -3 -1 -0 -2 -3 -2 -2 -1 -3 -2 -2 -5 -2 0 2 -1 -4 -2 -13 -9 1 3 5 6 5 6 -5 -6 -3 -1 -2 -3 -1 -4 -2 1 -1 -4
-1 1 -1 -3 -1 -2 -2 -1 -0 -0 -0 -2 -2 -1 -2 -2 -3 -3 -4 -4 0 4 5 2 2 2 -0 -3 -4 -4 -5 -3 -1 0 -1 1 -5 -2 -6 -0 -0 -0 -3
-1 -2 -1 -3 -0 -2 -4 -4 -3 -2 -2 -3 -3 -1 1 2 1 1 1 -0 -1 -2 -1 -1 -2 -3 -1 0 0 1 0 1 1 2 0 0 -2 0 4 0 -2 -1 2
-2 0 -1 -2 -2 -3 -2 -4 -2 -1 -1 0 -1 -2 -3 -2 -1 -1 -1 -1 -1 -1 0 1 1 1 2 0 0 2 2 2 2 2 0 -0 0 0 -1 1 -1 0 1
-2 -1 -0 -1 -0 2 -0 -1 -1 -2 -1 -1 -0 -0 -0 -1 -3 -3 -3 -3 -1 1 0 -0 -1 -2 -2 -3 -3 -4 -4 -4 -5 -5 -3 -2 -2 -2 -0 3 5 4 1
-2 -1 -2 -2 -4 -4 -2 -2 -3 -3 -3 -3 -1 1 1 -0 -1 -1 -2 -3 -5 -6 -5 -3 -2 -1 -1 -1 -1 -3 -2 0 2 1 1 -2 -1 -1 -1 -1 -1 -3 -5
-3 -4 -2 -2 0 0 -2 -1 0 1 -1 -2 -1 -1 -1 -1 -1 1 2 2 2 2 0 -0 0 1 -0 -1 1 1 -0 -3 -2 -1 0 2 2 -1 1 3 2 1 1
-2 -2 -2 -1 -1 2 4 1 1 1 2 2 2 2 4 4 0 -4 -1 3 4 4 3 4 4 5 6 5 4 4 4 4 3 1 0 -0 1 -2 -6 -6 -1 5 4
-1 -1 -2 -3 -0 1 -1 -2 -2 -3 -3 1 -2 -1 -2 -2 -2 1 4 -1 -1 1 2 3 3 0 -0 1 2 3 4 2 1 -3 -3 -7 -4 0 -1 -5 -3 2 2
-3 -1 1 -1 -1 -3 -2 -2 -1 -3 3 -0 -0 -0 -0 -1 1 3 1 -3 2 1 -0 1 0 -1 -0 -1 0 0 0 2 4 2 -3 -6 -4 -4 -1 -2 -1 -2 1
2 -1 -0 -2 0 -0 0 -2 1 -3 3 0 0 0 2 2 2 2 2 3 -1 2 1 0 0 -0 0 2 1 1 1 -1 5 4 1 3 2 -0 -3 -2 -4 -5 -4
5 2 6 3 -1 2 3 4 -4 4 2 0 -0 2 5 -1 -2 1 2 2 -1 -1 2 -1 -2 -1 -0 1 1 1 -0 -1 -0 -3 -3 1 2 3 -1 -6 -6 -6 -5
1 1 3 5 1 1 2 1 -1 1 3 0 1 2 -2 1 2 1 1 0 -0 -1 -1 -0 -1 -1 0 1 -0 -1 -2 -2 -6 -5 -3 -2 -2 -3 -3 -1 -5 -4 -1
-2 -3 1 2 2 -2 4 2 2 2 4 1 1 1 1 2 2 1 1 1 0 -1 2 -1 -1 -0 -2 -2 -1 -0 1 -2 -2 -1 -2 -2 -4 -3 -4 -7 -5 -4 0
-0 -3 -3 4 2 -1 -0 -1 0 1 3 1 2 -1 2 2 1 1 1 -1 -0 1 0 1 0 -1 -1 -4 -3 -3 -5 -2 -1 -2 0 -3 -3 -1 -0 1 -1 -6 -3
Height
5751 5747 5743 5738 5734 5731 5726 5719 5713 5702 5695 5688 5684 5680 5676 5675 5676 5676 5679 5681 5685 5691 5701 5709 5717 5721 5726 5730 5734 5735 5738 5742 5743 5745 5747 5751 5754 5756 5756 5757 5759 5761 5762
5745 5742 5738 5734 5729 5725 5719 5711 5703 5693 5683 5676 5669 5663 5656 5653 5652 5653 5657 5662 5666 5672 5680 5691 5700 5706 5713 5717 5721 5724 5728 5730 5733 5734 5737 5742 5745 5746 5747 5749 5749 5750 5751
5741 5739 5735 5730 5726 5720 5713 5706 5697 5686 5675 5667 5654 5640 5630 5625 5625 5628 5634 5640 5648 5656 5664 5673 5683 5692 5700 5705 5710 5713 5716 5719 5721 5723 5726 5732 5734 5735 5737 5739 5739 5739 5740
5739 5735 5732 5728 5723 5716 5709 5701 5691 5680 5668 5655 5636 5617 5601 5595 5598 5604 5611 5620 5632 5641 5653 5662 5669 5676 5685 5692 5697 5700 5704 5707 5709 5713 5716 5717 5720 5724 5729 5729 5728 5727 5728
5737 5734 5731 5727 5721 5714 5706 5697 5686 5673 5660 5645 5625 5601 5582 5577 5580 5588 5596 5604 5617 5630 5641 5649 5656 5664 5671 5677 5684 5690 5693 5695 5699 5702 5703 5705 5707 5709 5713 5719 5719 5716 5714
5738 5734 5730 5724 5718 5710 5703 5693 5682 5669 5655 5639 5619 5594 5576 5571 5574 5579 5587 5595 5608 5619 5628 5637 5644 5651 5657 5664 5673 5680 5681 5685 5687 5691 5692 5694 5696 5697 5698 5701 5705 5705 5705
5737 5733 5728 5722 5715 5707 5699 5689 5679 5667 5654 5638 5618 5597 5577 5569 5571 5576 5584 5592 5602 5610 5618 5626 5631 5639 5646 5656 5662 5667 5670 5676 5677 5682 5682 5683 5683 5684 5685 5686 5689 5689 5692
5736 5731 5725 5719 5712 5705 5697 5688 5678 5667 5655 5641 5624 5606 5588 5572 5571 5578 5585 5592 5599 5606 5613 5618 5624 5630 5637 5646 5651 5654 5661 5668 5668 5671 5673 5672 5673 5674 5673 5672 5673 5675 5674
5733 5728 5722 5716 5710 5703 5695 5686 5677 5668 5658 5646 5632 5616 5602 5588 5578 5582 5588 5592 5599 5604 5609 5614 5620 5629 5636 5639 5647 5654 5658 5663 5667 5665 5662 5662 5664 5664 5662 5660 5660 5659 5660
5730 5724 5719 5713 5707 5701 5694 5686 5677 5668 5659 5649 5638 5626 5612 5603 5595 5591 5594 5597 5601 5604 5609 5616 5622 5626 5629 5635 5642 5647 5654 5657 5656 5654 5653 5653 5654 5653 5651 5649 5648 5646 5646
5726 5720 5715 5710 5704 5699 5692 5685 5677 5669 5661 5653 5644 5634 5625 5615 5608 5605 5603 5604 5605 5607 5611 5615 5621 5624 5627 5633 5640 5645 5646 5647 5647 5646 5644 5643 5643 5642 5640 5638 5636 5637 5635
5722 5717 5712 5708 5702 5696 5690 5683 5676 5669 5662 5655 5648 5640 5633 5627 5620 5615 5613 5613 5615 5617 5617 5620 5623 5626 5628 5631 5634 5636 5638 5639 5640 5640 5637 5633 5631 5631 5629 5627 5627 5626 5624
5719 5714 5709 5704 5699 5693 5688 5682 5676 5670 5664 5657 5650 5644 5639 5634 5630 5626 5624 5622 5622 5622 5623 5623 5623 5625 5627 5628 5629 5630 5632 5633 5633 5632 5629 5626 5623 5621 5621 5622 5619 5618 5618
5715 5711 5706 5701 5696 5691 5685 5680 5675 5669 5664 5658 5652 5647 5642 5638 5634 5632 5630 5629 5628 5627 5626 5626 5625 5625 5625 5625 5626 5626 5626 5626 5625 5623 5622 5619 5617 5615 5614 5613 5611 5609 5608
5709 5705 5701 5696 5692 5687 5682 5677 5672 5667 5662 5657 5653 5648 5644 5641 5638 5635 5632 5631 5629 5628 5628 5627 5627 5626 5626 5624 5624 5623 5621 5620 5618 5616 5613 5611 5609 5607 5605 5603 5601 5598 5596
5703 5699 5695 5692 5688 5684 5679 5674 5669 5664 5660 5656 5652 5648 5644 5640 5638 5635 5633 5631 5629 5627 5626 5625 5624 5623 5622 5621 5619 5617 5615 5613 5610 5607 5605 5602 5599 5597 5594 5591 5588 5585 5581
5698 5694 5691 5687 5684 5680 5676 5672 5668 5664 5660 5656 5652 5649 5645 5642 5638 5636 5633 5630 5628 5626 5624 5622 5620 5618 5616 5614 5612 5610 5607 5604 5601 5598 5594 5590 5587 5584 5581 5577 5574 5571 5567
5694 5690 5687 5683 5679 5675 5671 5668 5664 5661 5657 5654 5651 5648 5645 5641 5638 5634 5631 5627 5624 5622 5619 5617 5614 5612 5610 5607 5605 5602 5598 5594 5590 5586 5582 5578 5573 5569 5565 5562 5557 5552 5547
5687 5684 5681 5677 5674 5670 5666 5662 5658 5655 5652 5648 5645 5642 5639 5635 5632 5630 5627 5624 5620 5617 5614 5611 5608 5604 5602 5598 5594 5590 5586 5581 5577 5572 5567 5562 5556 5549 5544 5541 5536 5531 5524
5681 5677 5674 5670 5667 5663 5660 5657 5653 5650 5646 5642 5638 5635 5631 5629 5625 5623 5619 5616 5612 5609 5606 5602 5599 5595 5591 5587 5582 5578 5573 5568 5562 5556 5550 5544 5538 5531 5524 5518 5512 5506 5498
5674 5670 5666 5662 5659 5656 5653 5649 5646 5642 5639 5634 5630 5626 5623 5619 5616 5612 5609 5606 5602 5598 5595 5592 5588 5583 5579 5573 5569 5564 5559 5554 5548 5541 5533 5526 5519 5510 5501 5492 5484 5477 5469
5663 5660 5657 5653 5649 5645 5642 5639 5635 5631 5628 5623 5620 5617 5613 5610 5606 5602 5599 5595 5591 5587 5583 5578 5574 5570 5565 5560 5555 5550 5544 5539 5532 5525 5518 5509 5499 5488 5478 5468 5458 5450 5445
5652 5649 5646 5642 5637 5634 5631 5628 5622 5620 5618 5613 5609 5606 5602 5598 5594 5590 5587 5583 5578 5574 5570 5566 5561 5556 5552 5546 5541 5535 5529 5522 5515 5508 5500 5491 5479 5467 5457 5448 5442 5434 5427
5638 5635 5633 5631 5627 5622 5620 5617 5612 5608 5605 5601 5597 5594 5590 5586 5582 5579 5575 5570 5566 5561 5557 5552 5547 5543 5538 5532 5526 5520 5512 5505 5498 5490 5479 5468 5456 5447 5441 5433 5424 5418 5411
5624 5620 5618 5616 5614 5609 5607 5603 5598 5595 5592 5588 5584 5580 5576 5573 5569 5566 5561 5558 5553 5548 5543 5539 5534 5529 5523 5518 5511 5504 5497 5489 5481 5471 5460 5448 5440 5432 5425 5416 5410 5403 5397
5607 5604 5601 5599 5597 5594 5590 5587 5584 5581 5578 5574 5570 5566 5562 5558 5555 5551 5547 5543 5539 5534 5530 5526 5521 5515 5509 5503 5497 5490 5483 5475 5465 5455 5444 5435 5428 5422 5414 5407 5399 5392 5386